GW0458 Weather Reports


time (UTC)temp
C
wind
direction
speed
KPH
gust
KPH
rain 1hr
cm
rain 24hr
cm
rain mn
cm
humidity
%
barometer
mb
20260510112855 8 194 1.6 1.6 0.00 0.00 0.00 99 1025.3
20260510105851 8 194 1.6 1.6 0.00 0.00 0.00 99 1024.9
20260510102850 10 198 0.0 1.6 0.00 0.00 0.00 99 1024.5
20260510095849 10 207 0.0 0.0 0.00 0.00 0.00 99 1024.3
20260510092846 10 203 0.0 0.0 0.00 0.00 0.00 99 1024.0
20260510085841 10 204 0.0 0.0 0.00 0.00 0.00 99 1024.0
20260510082841 10 201 0.0 0.0 0.00 0.00 0.00 98 1023.5
20260510075839 11 199 0.0 0.0 0.00 0.00 0.00 96 1023.8
20260510072836 11 210 0.0 0.0 0.00 0.00 0.00 96 1023.7
20260510065833 12 201 0.0 0.0 0.00 0.00 0.00 93 1023.7
20260510062831 13 203 0.0 0.0 0.00 0.00 0.00 89 1023.9
20260510055826 13 205 0.0 0.0 0.00 0.00 0.00 89 1023.6
20260510052825 14 210 0.0 0.0 0.00 0.00 0.00 85 1023.5
20260510045823 15 207 0.0 0.0 0.00 0.00 0.00 82 1023.5
20260510042821 15 209 0.0 0.0 0.00 0.00 0.00 78 1023.5
20260510035817 16 208 0.0 0.0 0.00 0.00 0.00 73 1023.3
20260510032815 17 211 0.0 0.0 0.00 0.00 0.00 69 1023.1
20260510025815 17 207 0.0 0.0 0.00 0.00 0.00 68 1023.4
20260510022813 19 213 0.0 0.0 0.00 0.00 0.00 61 1023.6
20260510015807 19 213 0.0 1.6 0.00 0.00 0.00 60 1023.7
20260510012806 20 216 0.0 1.6 0.00 0.00 0.00 59 1024.1
20260510005804 20 230 1.6 3.2 0.00 0.00 0.00 58 1024.7
20260510002801 20 256 1.6 3.2 0.00 0.00 0.00 57 1025.0
20260509235755 20 250 1.6 3.2 0.00 0.00 0.00 57 1025.1
20260509232753 20 244 3.2 3.2 0.00 0.00 0.00 56 1025.3
20260509225750 20 209 1.6 3.2 0.00 0.00 0.00 55 1025.9
20260509222749 20 219 0.0 0.0 0.00 0.00 0.00 59 1026.4
20260509215748 20 246 3.2 3.2 0.00 0.00 0.00 57 1026.4
20260509212746 20 237 1.6 3.2 0.00 0.00 0.00 56 1026.5
20260509205746 20 222 3.2 3.2 0.00 0.00 0.00 59 1026.7
20260509202742 20 206 1.6 1.6 0.00 0.00 0.00 56 1027.2
20260509195740 20 264 3.2 3.2 0.00 0.00 0.00 58 1027.4
20260509192737 21 275 4.8 4.8 0.00 0.00 0.00 56 1028.0
20260509185738 20 242 3.2 3.2 0.00 0.00 0.00 61 1028.4
20260509182733 19 251 3.2 3.2 0.00 0.00 0.00 61 1028.5
20260509175732 18 259 3.2 3.2 0.00 0.00 0.00 65 1028.8
20260509172732 18 200 1.6 1.6 0.00 0.00 0.00 68 1028.9
20260509165729 17 220 1.6 1.6 0.00 0.00 0.00 72 1029.0
20260509162726 16 214 1.6 1.6 0.00 0.00 0.00 75 1029.3
20260509155724 15 203 0.0 0.0 0.00 0.00 0.00 78 1029.5
20260509152721 13 232 1.6 1.6 0.00 0.00 0.00 81 1029.6
20260509145716 11 203 0.0 0.0 0.00 0.00 0.00 91 1030.1
20260509142712 9 201 0.0 0.0 0.00 0.00 0.00 95 1030.4
20260509135710 8 199 0.0 0.0 0.00 0.00 0.00 99 1030.4
20260509132706 7 174 0.0 1.6 0.00 0.00 0.00 99 1030.6
20260509125703 8 199 0.0 1.6 0.00 0.00 0.00 99 1030.1
20260509122701 8 198 0.0 0.0 0.00 0.00 0.00 99 1030.4
20260509115658 8 203 0.0 0.0 0.00 0.00 0.00 99 1030.4